Weather Roundup
Issued by NWS Chicago, IL

Home | Current Version | Previous Version | Graphics & Text | Print | Product List | Glossary On
Versions: 1 2 3 4 5 6 7 8 9 10 11 12 13 14 15 16 17 18 19 20 21 22 23 24 25 26 27 28 29 30 31 32 33 34 35 36 37 38 39 40 41 42 43 44 45 46 47 48 49 50
000
NZUS59 KLOT 230208
HRRLOT

CHICAGO AREA WEATHER ROUNDUP
NATIONAL WEATHER SERVICE CHICAGO/ROMEOVILLE IL
900 PM CDT TUE AUG 22 2017

NOTE: "FAIR" INDICATES FEW OR NO CLOUDS BELOW 12,000 FEET WITH NO
SIGNIFICANT WEATHER AND/OR OBSTRUCTIONS TO VISIBILITY.

* THESE STATIONS ARE NOT UNDER NWS QUALITY CONTROL. THEY ALSO MAY NOT
  REPORT WEATHER SUCH AS PRECIPITATION OR FOG.

ILZ005-006-012>014-019>023-230300-
NORTHEAST ILLINOIS

CITY           SKY/WX    TMP DP  RH WIND       PRES   REMARKS
OHARE          PTCLDY    71  49  45 NW10      29.98R
MIDWAY         PTCLDY    72  50  45 NW10      29.97R
AURORA         CLEAR     59  57  93 NW6       30.00R
LANSING*       CLEAR     70  49  46 NW6       29.97R
JOLIET*        CLEAR     69  57  65 CALM      29.99R
WAUKEGAN       CLEAR     63  54  72 VRB3      29.97R
DUPAGE AIRPORT CLEAR     64  54  69 NW6       29.99R
WHEELING       CLEAR     69  53  56 NW6       29.99R
MORRIS*        PTCLDY    60  57  88 NW7       29.99R
LEWIS AIRPORT* CLEAR     65  51  61 NW6       29.99R
NORTHERLY ISL    N/A     73  49  42 NW8         N/A
$$

WIZ051-052-058>065-066-070>072-230300-
SOUTHEAST WISCONSIN

CITY           SKY/WX    TMP DP  RH WIND       PRES   REMARKS
MILWAUKEE      CLEAR     71  49  45 W7        29.96R
KENOSHA*       CLEAR     63  51  65 W5        29.97R
RACINE*        CLEAR     66  51  58 W5        29.98R
WAUKESHA       CLEAR     63  48  59 W7        29.98R
WEST BEND      CLEAR     64  48  55 W6        29.96R
$$

INZ001>003-010>013-019-020-230300-
NORTHWEST INDIANA

CITY           SKY/WX    TMP DP  RH WIND       PRES   REMARKS
GARY*          PTCLDY    73  46  38 NW9G21    29.97R
MICHIGAN CITY* NOT AVBL
RENSSELAER*    NOT AVBL
VALPARAISO     CLEAR     68  58  70 N5        29.97R
$$

LMZ740>746-230300-
SOUTHERN LAKE MICHIGAN

STATION/POSITION TIME  SKY/WX   TEMP WIND        PRES    VSBY
                                AIR  DIR/SP/G
                 (UTC)          (F)  (DEG/KT/KT) (MB)    (MI)
HARRISON CRIB    0140            74  320/ 17/ 18   N/A
BURNHAM HARBOR   NOT AVBL
CALUMET HARBOR   0148            72  300/  4/ 10 1014.2R
BURNS HARBOR     0140            74  340/ 15/ 20 1014.6R
MICHIGAN CITY    0140            73  330/ 19/ 21   N/A
$$

ABBREVIATIONS USED IN REMARKS
   TC - TEMPERATURE IN CELSIUS
  WCI - WIND CHILL INDEX
   HX - HEAT INDEX
  VSB - VISIBILITY
$$




USA.gov is the U.S. government's official web portal to all federal, state and local government web resources and services.